Regional Weather Roundup
Issued by NWS

Home | Current Version | Previous Version | Graphics & Text | Print | Product List | Glossary On
Versions: 1 2 3 4 5 6 7 8 9 10 11 12 13 14 15 16 17 18 19 20 21 22 23 24 25 26 27 28 29 30 31 32 33 34 35 36 37 38 39 40 41 42 43 44 45 46 47 48 49 50
000
ASUS43 KLMK 300610
RWRKY
KENTUCKY REGIONAL WEATHER ROUNDUP
NATIONAL WEATHER SERVICE LOUISVILLE KY
200 AM EDT TUE JUN 30 2015

NOTE "FAIR" INDICATES FEW OR NO CLOUDS BELOW 12,000 FEET
WITH NO SIGNIFICANT WEATHER AND/OR OBSTRUCTIONS TO VISIBILITY.

KYZ001>023-026-027-061>063-070>075-300700-
WESTERN AND SOUTH CENTRAL KENTUCKY

CITY           SKY/WX    TMP DP  RH WIND       PRES   REMARKS
PADUCAH        CLEAR     69  66  90 CALM      29.89R
HENDERSON      PTCLDY    64  63  94 S5        29.87R
OWENSBORO      CLEAR     68  66  93 S3        29.88S
HOPKINSVILLE   PTCLDY    70  68  93 SW6       29.91S
BOWLING GREEN  CLEAR     71  67  87 SW5       29.90S
GLASGOW        CLOUDY    68  68 100 CALM      29.91S
$$

KYZ024-025-028>034-038-045-046-053-300700-
NORTH CENTRAL KENTUCKY

CITY           SKY/WX    TMP DP  RH WIND       PRES   REMARKS
LOUISVILLE/SDF PTCLDY    72  63  73 SW6       29.87R
LOUISVILLE/LOU CLEAR     69  64  84 SW3       29.87S
FORT KNOX      CLEAR     64  62  93 S2        29.88R
$$

KYZ035>037-039>044-047>052-055>060-089>105-300700-
NORTHEAST KENTUCKY

CITY           SKY/WX    TMP DP  RH WIND       PRES   REMARKS
LEXINGTON      PTCLDY    66  65  96 SW8       29.89S
COVINGTON      PTCLDY    66  64  93 S5        29.84F
FRANKFORT      PTCLDY    65  63  93 SW5       29.87S
$$

KYZ054-064>069-076>088-106>120-300700-
SOUTHEAST KENTUCKY

CITY           SKY/WX    TMP DP  RH WIND       PRES   REMARKS
JACKSON        CLOUDY    67  64  90 VRB3      29.91F
LONDON         CLOUDY    67  61  81 SW5       29.93F
SOMERSET       MOCLDY    64  64 100 CALM      29.93F
MIDDLESBORO    LGT RAIN  66  66 100 CALM      29.95F
MONTICELLO     CLOUDY    67  67 100 CALM      29.95F
$$



USA.gov is the U.S. government's official web portal to all federal, state and local government web resources and services.